Torch Lake Weather Center

Moon Phase Calendar



Torch Lake Water Level
Online Cameras

 


      

Current Conditions in Bellaire
9/20/2021 9:29:19 PM

73°F
Feels Like 74
Clouds
Humidity
83%
Pressure
29.85"
Wind
10.4 mph (S)
Dew Point
68°F
UV Index
0/10 (Low)
Visibility
6 mi

Hourly Forecast

Date & Time Mon, Sep 20
9:00 PM
Mon, Sep 20
10:00 PM
Mon, Sep 20
11:00 PM
Tue, Sep 21
12:00 AM
Tue, Sep 21
1:00 AM
Tue, Sep 21
2:00 AM
Tue, Sep 21
3:00 AM
Tue, Sep 21
4:00 AM
Tue, Sep 21
5:00 AM
Tue, Sep 21
6:00 AM
Tue, Sep 21
7:00 AM
Tue, Sep 21
8:00 AM
Tue, Sep 21
9:00 AM
Tue, Sep 21
10:00 AM
Tue, Sep 21
11:00 AM
Tue, Sep 21
12:00 PM
Tue, Sep 21
1:00 PM
Tue, Sep 21
2:00 PM
Tue, Sep 21
3:00 PM
Tue, Sep 21
4:00 PM
Tue, Sep 21
5:00 PM
Tue, Sep 21
6:00 PM
Tue, Sep 21
7:00 PM
Tue, Sep 21
8:00 PM
Tue, Sep 21
9:00 PM
Tue, Sep 21
10:00 PM
Tue, Sep 21
11:00 PM
Wed, Sep 22
12:00 AM
Wed, Sep 22
1:00 AM
Wed, Sep 22
2:00 AM
Wed, Sep 22
3:00 AM
Wed, Sep 22
4:00 AM
Wed, Sep 22
5:00 AM
Wed, Sep 22
6:00 AM
Wed, Sep 22
7:00 AM
Wed, Sep 22
8:00 AM
Wed, Sep 22
9:00 AM
Wed, Sep 22
10:00 AM
Wed, Sep 22
11:00 AM
Wed, Sep 22
12:00 PM
Wed, Sep 22
1:00 PM
Wed, Sep 22
2:00 PM
Wed, Sep 22
3:00 PM
Wed, Sep 22
4:00 PM
Wed, Sep 22
5:00 PM
Wed, Sep 22
6:00 PM
Wed, Sep 22
7:00 PM
Wed, Sep 22
8:00 PM
Condition
Clouds

Clouds

Clouds

Rain

Rain

Rain

Clouds

Rain

Rain

Rain

Rain

Rain

Rain

Rain

Rain

Rain

Clouds

Clouds

Clouds

Clouds

Clouds

Clouds

Clouds

Clouds

Clouds

Clouds

Clouds

Clouds

Clouds

Clouds

Clouds

Clouds

Clouds

Clouds

Clouds

Clouds

Clouds

Clouds

Clouds

Clouds

Clouds

Clouds

Clouds

Clouds

Clouds

Clouds

Clouds

Clouds
Temperature 73°F72°F72°F72°F71°F70°F70°F70°F69°F69°F69°F68°F62°F61°F60°F61°F63°F63°F63°F63°F63°F62°F61°F59°F58°F56°F56°F56°F55°F55°F54°F53°F53°F52°F51°F50°F51°F51°F52°F53°F54°F55°F55°F55°F55°F55°F54°F53°F
Feels Like 74°F73°F73°F73°F72°F71°F71°F71°F70°F70°F70°F69°F63°F61°F60°F60°F63°F62°F62°F62°F62°F61°F60°F58°F56°F55°F54°F54°F54°F53°F52°F52°F51°F50°F49°F48°F49°F49°F50°F51°F51°F52°F53°F53°F53°F52°F52°F51°F
Cloudiness 75%67%63%65%68%72%100%100%100%100%100%100%100%100%100%100%100%100%100%100%100%100%100%100%100%100%100%100%100%100%100%100%100%100%100%100%100%100%100%100%100%100%100%100%100%100%100%100%
Visibility 6 mi6 mi6 mi6 mi6 mi6 mi6 mi6 mi4 mi6 mi6 mi6 mi6 mi6 mi6 mi6 mi6 mi6 mi6 mi6 mi6 mi6 mi6 mi6 mi6 mi6 mi6 mi6 mi6 mi6 mi6 mi6 mi6 mi6 mi6 mi6 mi6 mi6 mi6 mi6 mi6 mi6 mi6 mi6 mi6 mi6 mi6 mi6 mi
Precipitation 60%60%52%53%60%60%55%100%100%100%100%100%98%97%93%89%80%77%0%0%0%0%0%0%0%1%1%1%0%0%0%0%0%0%0%0%0%0%0%0%0%0%0%0%0%0%0%0%
Humidity 83%85%87%88%90%91%92%93%95%94%93%93%93%91%87%85%74%69%66%67%62%62%63%63%66%67%69%69%70%70%70%71%72%73%74%74%71%68%64%61%60%59%57%57%56%58%59%57%
Dew Point 68°F68°F68°F68°F68°F67°F68°F67°F67°F67°F67°F66°F60°F58°F56°F56°F54°F52°F51°F51°F49°F49°F48°F47°F46°F46°F46°F45°F45°F45°F44°F44°F44°F43°F43°F42°F41°F40°F40°F40°F40°F40°F40°F40°F39°F40°F39°F38°F
Pressure 29.85"29.85"29.83"29.83"29.83"29.8"29.8"29.8"29.8"29.8"29.8"29.83"29.88"29.94"29.97"29.97"30"30"30.03"30.03"30.03"30.06"30.06"30.09"30.12"30.12"30.12"30.12"30.12"30.12"30.12"30.12"30.12"30.12"30.12"30.12"30.15"30.15"30.12"30.12"30.09"30.06"30.06"30.03"30.06"30.06"30.06"30.03"
Wind Speed 16.2 mph17.3 mph19.5 mph19 mph18.2 mph18.5 mph18.5 mph17.7 mph16.3 mph10.8 mph16.6 mph17.1 mph19.4 mph13.7 mph11.2 mph11 mph13.2 mph14.2 mph13.7 mph14.6 mph15.3 mph15.2 mph16.8 mph17.7 mph16.1 mph16.4 mph15.3 mph15.1 mph15.4 mph14.8 mph15.1 mph15.1 mph16.3 mph16.4 mph16.4 mph16.1 mph16.1 mph16.6 mph19.9 mph19.6 mph19.7 mph19.4 mph17.9 mph19.1 mph18 mph19 mph19.5 mph19.8 mph
Wind
Direction
169°
S
164°
SSE
178°
S
183°
S
191°
S
187°
S
191°
S
199°
SSW
216°
SW
189°
S
198°
SSW
222°
SW
314°
NW
313°
NW
313°
NW
324°
NW
328°
NNW
327°
NNW
327°
NNW
336°
NNW
341°
NNW
348°
NNW
353°
N
354°
N
359°
N

N
10°
N
17°
NNE
14°
NNE
12°
NNE
20°
NNE
14°
NNE
14°
NNE
21°
NNE
23°
NNE
23°
NNE
23°
NNE
27°
NNE
18°
NNE
20°
NNE
16°
NNE
16°
NNE
13°
NNE
10°
N

N

N

N

N

Daily Forecast

Date High Low Precip. Humidity
Today
Sep 20

Rain
80 °F
66 °F
94%
58%
Tuesday
Sep 21

Rain
72 °F
56 °F
100%
74%
Wednesday
Sep 22

Clouds
56 °F
50 °F
1%
60%
Thursday
Sep 23

Rain
50 °F
48 °F
75%
85%
Friday
Sep 24

Rain
71 °F
49 °F
64%
46%
Saturday
Sep 25

Rain
63 °F
54 °F
100%
50%
Sunday
Sep 26

Clouds
74 °F
49 °F
0%
40%
Monday
Sep 27

Clouds
77 °F
64 °F
14%
44%
Tuesday
Sep 28

Rain
69 °F
55 °F
20%
50%
Wednesday
Sep 29

Clouds
74 °F
51 °F
0%
33%
Thursday
Sep 30

Clouds
74 °F
58 °F
0%
38%
Friday
Oct 1

Rain
67 °F
62 °F
76%
83%
Saturday
Oct 2

Rain
67 °F
61 °F
25%
79%
Sunday
Oct 3

Rain
72 °F
61 °F
83%
71%
Monday
Oct 4

Rain
66 °F
56 °F
93%
59%
Tuesday
Oct 5

Clouds
67 °F
56 °F
0%
62%

Temperature 8-14 Day Outlook



Precipitation 8-14 Day Outlook




Quick Links
Torch Lake News
Torch Lake Photos
Torch Lake Videos




About Us
Contact Us
Site Map
Search Site
Advertise With Us
   
Torch.LakesOnline.com
THE TORCH LAKE WEBSITE

Copyright 2021, Lakes Online
Privacy    |    Legal